Regional Weather Roundup
Issued by NWS Sterling, VA

Home | Current Version | Previous Version | Text Only | Print | Product List | Glossary Off
Versions: 1 2 3 4 5 6 7 8 9 10 11 12 13 14 15 16 17 18 19 20 21 22 23 24 25 26 27 28 29 30 31 32 33 34 35 36 37 38 39 40 41 42 43 44 45 46 47 48 49 50

000
ASUS41 KLWX 160210
RWRLWX

REGIONAL WEATHER ROUNDUP
NATIONAL WEATHER SERVICE BALTIMORE MD/WASHINGTON DC
1000 PM EDT MON SEP 15 2014

Note: "FAIR" indicates few or no clouds below 12,000 feet
with no significant weather and/or obstructions to visibility.
 TC=TEMPERATURE CELSIUS

 * =Non NWS site. Station does not report precipitation (e.g. rain,
    snow, etc.), thunder, or fog.

DCZ001-MDZ009-015-VAZ040>042-051-053>054-160300-
WASHINGTON METRO

CITY           SKY/WX    TMP DP  RH WIND       PRES   REMARKS
WASHINGTON NAT CLOUDY    69  58  67 S10       30.10S
DULLES         CLOUDY    64  56  75 S8        30.08F
ANDREWS AFB    CLOUDY    63  57  82 S6        30.09F
QUANTICO       CLOUDY    68  61  78 S12       30.10F
COLLEGE PARK*  CLOUDY    64  57  77 CALM      30.09F
LEESBURG*      CLOUDY    63  59  88 S5        30.09S
GAITHERSBURG*  MOCLDY    63  55  77 SE6       30.13S

$$

MDZ006>007-011-014-160300-
BALTIMORE METRO

CITY           SKY/WX    TMP DP  RH WIND       PRES   REMARKS
BWI AIRPORT    CLOUDY    63  55  75 SW3       30.09F
MD SCIENCE CTR   N/A     67  54  63 MISG      30.09F
MARTIN STATE   PTCLDY    66  59  77 S3        30.10F
ANNAPOLIS      MOCLDY    66  57  72 S6        30.09F
FORT MEADE*    CLOUDY    55  54  94 S3        30.11F

$$

MDZ012-015-019>023-160300-
MARYLAND EASTERN SHORE

CITY           SKY/WX    TMP DP  RH WIND       PRES   REMARKS
OCEAN CITY     MOCLDY    58  54  86 CALM      30.13S
SALISBURY      PTCLDY   N/A N/A N/A CALM      30.12
BAY BRIDGE AP*   N/A     66  54  63 S5        30.10S
CAMBRIDGE*     MOCLDY    63  55  77 CALM      30.10F

$$

MDZ017>025-160300-
SOUTHERN MARYLAND

CITY           SKY/WX    TMP DP  RH WIND       PRES   REMARKS
PATUXENT RIVER MOCLDY    66  58  75 S6        30.10F
ST INIGOES     MOCLDY    67  58  72 S6        30.10F
LEONARDTOWN*   MOCLDY    63  55  77 SE3       30.12F

$$

MDZ003>005-160300-
NORTH CENTRAL MARYLAND

CITY           SKY/WX    TMP DP  RH WIND       PRES   REMARKS
FREDERICK*     MOCLDY    61  59  94 CALM      30.10F
HAGERSTOWN APT CLOUDY    64  52  64 CALM      30.07S
WESTMINSTER*   MOCLDY    63  55  77 SE5       30.09F

$$

MDZ501>502-160300-
WESTERN MARYLAND

CITY           SKY/WX    TMP DP  RH WIND       PRES   REMARKS
OAKLAND*       MOCLDY    52  52 100 S6        30.09F
CUMBERLAND*    MOCLDY    61  54  77 NE3       30.10F

$$

VAZ025>031-160300-
SHENANDOAH VALLEY

CITY           SKY/WX    TMP DP  RH WIND       PRES   REMARKS
WINCHESTER*    CLOUDY    63  54  72 SE5       30.06F
STAUNTON*      CLOUDY    66  58  77 S6        30.11F

$$

WVZ021-048>050-054>055-160300-
EASTERN WEST VIRGINIA PANHANDLE

CITY           SKY/WX    TMP DP  RH WIND       PRES   REMARKS
MARTINSBURG    CLOUDY    59  54  83 CALM      30.07F
PETERSBURG*    CLOUDY    60  58  93 CALM      30.07F

$$

VAZ036>039-050-160300-
CENTRAL FOOTHILLS

CITY           SKY/WX    TMP DP  RH WIND       PRES   REMARKS
CHARLOTTESVILL CLOUDY    67  60  78 S9        30.09F
ORANGE*        CLOUDY    66  59  77 SE5       30.11F

$$

VAZ055>057-160300-
NORTH AND CENTRAL PIEDMONT

CITY           SKY/WX    TMP DP  RH WIND       PRES   REMARKS
FREDERICKSBRG* CLOUDY    66  61  82 CALM      30.10S
STAFFORD*      CLOUDY    62  62 100 CALM      30.13F

$$

NCZ024-NYZ072-PAZ021-071-VAZ022-071-160300-
OTHER REGIONAL OBSERVATIONS

CITY           SKY/WX    TMP DP  RH WIND       PRES   REMARKS
NEW YORK CITY  MOCLDY    64  50  60 VRB3      30.11F
PHILADELPHIA   MOCLDY    65  51  60 S6        30.09F
PITTSBURGH     CLOUDY    62  51  67 CALM      30.05S
ROANOKE        CLOUDY    68  63  84 SE7       30.13S
RICHMOND       PTCLDY    65  60  84 S6        30.11F
RALEIGH        MOCLDY    70  65  84 SE3       30.14F

$$

ANZ530>537-160300-
MARINE OBSERVATIONS

STATION/POSITION TIME  TEMP    WIND        PRES
                       AIR SEA DIR/SP/G
                 (UTC) (F)     (DEG/KT/KT) (MB)
THOMAS PT LIGHT  0200   70 75  190/ 14/ 15 1019.7F
BALT KEY BRIDGE  0200   68     150/  9/  9 1018.6F
COVE POINT       0200   69     200/  9/ 11 1019.1F
LEWISETTA        0200   67 74  190/  7/  9 1018.9F
SOLOMONS ISLAND  0200      76                N/A
PINEY POINT      0200          190/ 14/ 15   N/A

$$




USA.gov is the U.S. government's official web portal to all federal, state and local government web resources and services.